Location: Unspecified
(49.2170°N, 0.0000°E)
Time: 01:13:38
(UTC+00:00)

A-11 Canister half - Pass Details

Date: 20 June 2019
Orbit: 1526 x 1683 km, 47.3° (Epoch: 16 August)

Event Time Altitude Azimuth Distance (km) Brightness Sun altitude
Rises 09:40:12 0° 282° (WNW) 4,687 11.2 52.2°
Reaches altitude 10° 09:43:15 10° 280° (W) 3,698 10.8 52.6°
Maximum altitude 09:52:24 65° 201° (SSW) 1,655 10.2 53.9°
Drops below altitude 10° 10:01:39 10° 122° (ESE) 3,729 11.8 55.1°
Sets 10:04:45 0° 120° (ESE) 4,728 12.1 55.5°
